"datetime","# probes","# resolvers","can_ipv6","can_ipv6_prbs","can_tcp","can_tcp_prbs","can_tcp6","can_tcp6_prbs","does_ecs","does_ecs_prbs","does_flagday","does_flagday_prbs","does_rov4","does_rov4_prbs","does_rov6","does_rov6_prbs","does_qnamemin","doesnt_qnamemin","does_qnamemin_prbs","doesnt_qnamemin_prbs","does_nxdomain","doesnt_nxdomain","does_nxdomain_prbs","doesnt_nxdomain_prbs","has_ta_19036","hasnt_ta_19036","has_ta_19036_prbs","hasnt_ta_19036_prbs","has_ta_20326","hasnt_ta_20326","has_ta_20326_prbs","hasnt_ta_20326_prbs","can_rsamd5","cannot_rsamd5","broken_rsamd5","can_rsamd5_prbs","cannot_rsamd5_prbs","broken_rsamd5_prbs","can_dsa","cannot_dsa","broken_dsa","can_dsa_prbs","cannot_dsa_prbs","broken_dsa_prbs","can_rsasha1","cannot_rsasha1","broken_rsasha1","can_rsasha1_prbs","cannot_rsasha1_prbs","broken_rsasha1_prbs","can_dsansec3","cannot_dsansec3","broken_dsansec3","can_dsansec3_prbs","cannot_dsansec3_prbs","broken_dsansec3_prbs","can_rsansec3","cannot_rsansec3","broken_rsansec3","can_rsansec3_prbs","cannot_rsansec3_prbs","broken_rsansec3_prbs","can_rsasha256","cannot_rsasha256","broken_rsasha256","can_rsasha256_prbs","cannot_rsasha256_prbs","broken_rsasha256_prbs","can_rsasha512","cannot_rsasha512","broken_rsasha512","can_rsasha512_prbs","cannot_rsasha512_prbs","broken_rsasha512_prbs","can_eccgost","cannot_eccgost","broken_eccgost","can_eccgost_prbs","cannot_eccgost_prbs","broken_eccgost_prbs","can_ecdsa256","cannot_ecdsa256","broken_ecdsa256","can_ecdsa256_prbs","cannot_ecdsa256_prbs","broken_ecdsa256_prbs","can_ecdsa384","cannot_ecdsa384","broken_ecdsa384","can_ecdsa384_prbs","cannot_ecdsa384_prbs","broken_ecdsa384_prbs","can_ed25519","cannot_ed25519","broken_ed25519","can_ed25519_prbs","cannot_ed25519_prbs","broken_ed25519_prbs","can_ed448","cannot_ed448","broken_ed448","can_ed448_prbs","cannot_ed448_prbs","broken_ed448_prbs","can_gost","cannot_gost","broken_gost","can_gost_prbs","cannot_gost_prbs","broken_gost_prbs","can_sha384","cannot_sha384","broken_sha384","can_sha384_prbs","cannot_sha384_prbs","broken_sha384_prbs","is_internal","is_forwarding","is_external","is_internal_prbs","is_forwarding_prbs","is_external_prbs"
2017-06-20T23:59:59Z,220,396,394,218,396,220,389,216,3,22,0,0,0,0,0,0,2,394,1,219,0,394,0,218,0,0,0,0,0,0,0,0,370,15,10,202,24,21,388,7,0,214,30,0,394,1,0,219,14,0,388,7,0,214,31,0,396,0,0,220,13,0,396,0,0,220,13,0,395,0,0,220,12,0,15,379,2,15,211,1,394,1,0,219,13,0,395,1,0,219,14,0,0,394,2,0,219,1,0,394,2,0,219,1,15,379,2,24,210,1,396,0,0,220,13,0,364,12,20,200,17,32
2017-06-21T23:59:59Z,223,407,405,221,407,223,400,219,6,25,0,0,0,0,0,0,2,405,1,222,0,405,0,221,0,0,0,0,0,0,0,0,379,14,13,205,25,24,399,7,0,218,32,0,406,0,0,223,13,0,401,6,0,218,32,0,407,0,0,223,14,0,407,0,0,223,14,0,407,0,0,223,14,0,15,390,2,15,214,1,406,1,0,222,14,0,406,1,0,222,14,0,0,405,2,0,222,1,0,405,2,0,222,1,14,391,2,24,213,1,406,1,0,222,14,0,369,14,24,200,19,33
2017-06-22T23:59:59Z,227,410,408,225,410,227,401,223,2,22,0,0,0,0,0,0,3,407,2,225,0,408,0,225,0,0,0,0,0,0,0,0,381,15,13,207,24,25,400,9,0,220,33,0,407,2,0,226,14,0,401,9,0,220,33,0,410,0,0,227,12,0,410,0,0,227,12,0,409,1,0,226,13,0,15,393,2,15,218,1,408,2,0,226,14,0,408,2,0,226,14,0,0,408,2,0,226,1,0,408,2,0,226,1,16,392,2,25,216,1,408,2,0,226,14,0,370,14,26,203,19,33
2017-06-23T23:59:59Z,222,407,405,220,406,222,402,220,3,21,0,0,0,0,0,0,2,405,1,221,0,406,0,221,0,0,0,0,0,0,0,0,380,14,12,204,23,22,400,5,0,217,29,0,406,0,0,222,12,0,402,4,0,218,29,0,406,0,0,221,12,0,407,0,0,222,12,0,405,1,0,221,13,0,15,390,2,15,213,1,407,0,0,222,12,0,406,1,0,222,13,0,0,405,2,0,221,1,0,405,2,0,221,1,15,390,2,24,212,1,406,1,0,222,13,0,367,13,27,199,18,32
2017-06-24T23:59:59Z,224,408,406,222,407,224,400,222,3,23,0,0,0,0,0,0,2,406,1,223,0,406,0,222,0,0,0,0,0,0,0,0,380,15,12,206,24,24,399,8,0,218,32,0,407,0,0,224,12,0,401,6,0,219,30,0,407,0,0,223,12,0,408,0,0,224,12,0,406,1,0,223,13,0,15,391,2,15,215,1,407,1,0,224,13,0,407,1,0,224,13,0,0,406,2,0,223,1,0,406,2,0,223,1,14,392,2,24,214,1,408,0,0,224,12,0,368,14,26,200,19,33
2017-06-25T23:59:59Z,225,405,403,223,405,225,402,222,2,21,0,0,0,0,0,0,0,405,0,225,0,402,0,223,0,0,0,0,0,0,0,0,378,16,11,207,25,24,394,10,0,217,35,1,403,2,0,224,14,1,397,7,0,218,32,1,403,1,0,224,13,1,405,0,0,225,12,1,403,1,0,224,13,1,15,390,0,15,217,1,405,0,0,225,12,1,403,2,0,224,14,1,0,405,0,0,225,1,0,405,0,0,225,1,14,391,0,24,216,1,404,1,0,224,13,1,368,14,23,202,19,32
2017-06-26T23:59:59Z,225,407,405,223,407,225,384,222,3,24,0,0,0,0,0,0,2,405,1,224,0,404,0,222,0,0,0,0,0,0,0,0,380,14,13,207,24,24,399,7,0,219,33,0,407,0,0,225,13,0,400,6,0,219,32,0,406,0,0,224,13,0,407,0,0,225,14,0,406,0,0,224,13,0,15,390,2,15,216,1,407,0,0,225,13,0,407,0,0,225,13,0,0,405,2,0,224,1,0,405,2,0,224,1,14,391,2,24,215,1,407,0,0,225,14,0,369,14,24,202,20,33
2017-06-27T23:59:59Z,226,408,406,224,408,226,392,223,4,25,0,0,0,0,0,0,3,405,2,224,0,405,0,223,0,0,0,0,0,0,0,0,382,14,12,208,25,23,399,8,0,219,33,0,408,0,0,226,13,0,400,7,0,219,32,0,407,0,0,225,13,0,408,0,0,226,14,0,407,0,0,225,13,0,14,392,2,14,218,1,408,0,0,226,13,0,408,0,0,226,13,0,0,406,2,0,225,1,0,406,2,0,225,1,15,391,2,25,215,1,408,0,0,226,13,0,370,14,24,203,20,33
2017-06-28T23:59:59Z,227,410,408,225,410,227,400,225,3,20,0,0,0,0,0,0,5,405,3,224,0,407,0,224,0,0,0,0,0,0,0,0,383,14,13,209,23,23,404,6,0,222,30,1,409,1,0,226,12,1,403,6,0,221,29,0,409,0,0,226,12,1,410,0,0,227,12,1,409,0,0,226,11,1,15,391,4,15,217,3,410,0,0,227,12,1,410,0,0,227,11,1,0,406,4,1,225,2,0,406,4,0,225,3,14,392,4,23,216,3,409,1,0,226,13,1,370,13,27,204,18,32
2017-06-29T23:59:59Z,225,408,406,223,408,225,393,220,4,22,0,0,0,0,0,0,2,406,1,224,0,405,0,222,0,0,0,0,0,0,0,0,382,15,11,208,23,21,403,5,0,222,28,0,408,0,0,225,11,0,401,6,0,219,29,0,406,1,0,224,12,0,408,0,0,225,11,0,406,1,0,224,12,0,14,392,2,14,217,1,407,1,0,225,12,0,407,1,0,225,12,0,0,406,2,0,224,1,0,406,2,0,224,1,14,392,2,23,215,1,407,1,0,224,12,0,368,13,27,202,18,32
2017-06-30T23:59:59Z,227,410,408,225,410,227,400,225,3,21,0,0,0,0,0,0,2,408,1,226,0,407,0,224,0,0,0,0,0,0,0,0,384,14,12,210,22,23,404,6,0,223,30,1,410,0,0,227,11,1,405,4,0,223,29,1,409,0,0,226,12,1,410,0,0,227,12,1,409,1,0,226,12,1,14,394,2,14,219,2,409,1,0,226,12,1,409,1,0,226,13,1,0,408,2,0,226,2,0,408,2,0,226,2,14,394,2,24,217,2,410,0,0,227,11,1,369,13,28,203,18,33
2017-07-01T23:59:59Z,230,414,412,228,414,230,396,228,2,20,0,0,0,0,0,0,4,410,2,228,0,411,0,227,0,0,0,0,0,0,0,0,386,15,13,212,23,22,407,7,0,224,31,0,414,0,0,230,12,0,406,7,0,224,31,0,413,0,0,229,12,0,414,0,0,230,12,0,413,1,0,229,13,0,15,395,4,15,220,2,414,0,0,230,12,0,414,0,0,230,12,0,0,410,4,0,228,2,0,410,4,0,228,2,16,394,4,25,218,2,413,1,0,229,12,0,374,13,27,207,18,32
2017-07-02T23:59:59Z,230,417,415,228,417,230,397,225,4,21,0,0,0,0,0,0,4,413,2,228,0,414,0,227,0,0,0,0,0,0,0,0,389,15,13,212,23,23,410,7,0,224,30,1,417,0,0,230,12,1,409,7,0,223,31,1,416,0,0,229,12,1,417,0,0,230,12,1,417,0,0,230,12,1,14,399,4,14,221,3,416,1,0,229,13,1,416,1,0,229,13,1,0,413,4,0,228,3,0,413,4,0,228,3,14,399,4,23,219,3,416,1,0,229,12,1,374,13,30,206,18,33
2017-07-03T23:59:59Z,229,413,411,227,413,229,392,225,4,22,0,0,0,0,0,0,4,409,2,227,0,410,1,226,0,0,0,0,0,0,0,0,387,15,11,211,23,24,406,7,0,225,31,2,412,1,0,229,13,2,406,6,0,224,30,2,412,0,0,228,12,2,413,0,0,229,12,2,413,0,0,229,12,2,15,394,4,15,219,4,413,0,0,229,12,2,412,1,0,229,13,2,0,409,4,0,227,4,0,409,4,0,227,4,16,393,4,24,217,4,412,1,0,229,13,2,371,13,29,205,19,34
2017-07-04T23:59:59Z,232,417,415,230,417,232,391,228,4,24,0,0,0,0,0,0,3,414,2,230,0,414,1,229,0,0,0,0,0,0,0,0,391,15,11,215,24,25,408,9,0,226,33,2,416,1,0,232,13,2,409,7,0,225,31,2,416,0,0,231,12,2,417,0,0,232,12,2,417,0,0,232,12,2,15,400,2,15,223,3,415,2,0,231,14,2,416,1,0,231,13,2,0,415,2,0,231,3,0,415,2,0,231,3,15,400,2,25,222,3,415,2,0,231,14,2,376,13,28,208,19,35
2017-07-05T23:59:59Z,230,416,414,228,416,230,396,226,4,22,0,0,0,0,0,0,0,416,0,230,0,413,1,227,0,0,0,0,0,0,0,0,393,15,8,214,23,23,411,5,0,226,29,2,415,1,0,230,12,2,408,8,0,225,32,2,415,0,0,229,11,2,416,0,0,230,11,2,415,1,0,230,12,2,15,401,0,15,222,2,414,2,0,228,13,2,413,3,0,228,14,2,0,416,0,0,230,2,0,416,0,0,230,2,15,401,0,25,221,2,414,2,0,229,13,2,374,13,29,206,18,34
2017-07-06T23:59:59Z,229,417,415,227,417,229,364,216,4,23,0,0,0,0,0,0,1,416,1,228,0,414,1,226,0,0,0,0,0,0,0,0,395,14,8,213,23,22,410,7,0,223,32,1,417,0,0,229,12,1,411,6,0,224,31,1,416,0,0,228,12,1,417,0,0,229,12,1,417,0,0,229,11,1,13,404,0,13,223,1,416,1,0,228,13,1,416,1,0,228,12,1,0,417,0,0,229,1,0,417,0,0,229,1,16,401,0,25,219,1,416,1,0,228,12,1,374,13,30,205,18,34
2017-07-07T23:59:59Z,226,416,414,224,416,226,414,224,4,22,0,0,0,0,0,0,1,415,1,225,0,413,1,223,0,0,0,0,0,0,0,0,392,14,10,210,22,23,411,5,0,223,29,1,416,0,0,226,11,1,412,4,0,223,27,2,414,1,0,225,12,1,416,0,0,226,11,2,415,1,0,226,12,1,13,403,0,13,220,1,415,1,0,226,12,1,416,0,0,226,11,1,0,416,0,0,226,1,0,416,0,0,226,1,14,402,0,24,218,1,416,0,0,226,11,1,376,13,27,203,18,33
2017-07-08T23:59:59Z,228,418,416,226,418,228,415,226,4,22,0,0,0,0,0,0,0,418,0,228,0,414,1,224,0,0,0,0,0,0,0,0,394,14,10,212,23,23,413,5,0,225,30,1,418,0,0,228,11,1,414,4,0,225,28,1,417,0,0,227,11,1,418,0,0,228,12,1,418,0,0,228,12,1,14,404,0,14,221,1,418,0,0,228,12,1,418,0,0,228,12,1,0,418,0,0,228,1,0,418,0,0,228,1,13,405,0,23,220,1,418,0,0,228,11,1,378,13,27,205,18,33
2017-07-09T23:59:59Z,230,421,419,228,421,230,418,228,2,21,0,0,0,0,0,0,0,421,0,230,0,418,1,227,0,0,0,0,0,0,0,0,396,14,11,213,23,24,415,6,0,225,31,1,421,0,0,230,11,1,416,5,0,226,28,1,420,0,0,229,12,1,421,0,0,230,12,1,421,0,0,230,11,1,14,407,0,14,223,1,420,1,0,229,12,1,420,1,0,229,12,1,0,421,0,0,230,1,0,421,0,0,230,1,13,408,0,23,222,1,420,1,0,229,12,1,381,13,27,207,18,33
2017-07-10T23:59:59Z,233,427,425,231,427,233,423,231,3,23,0,0,0,0,0,0,1,426,1,232,0,423,1,229,0,0,0,0,0,0,0,0,403,14,9,217,24,23,422,5,0,229,32,1,426,0,0,232,12,1,422,5,0,229,31,1,426,0,0,232,13,1,427,0,0,233,13,1,427,0,0,233,12,1,14,413,0,14,226,1,426,0,0,232,13,1,426,0,0,232,12,1,0,427,0,0,233,1,0,427,0,0,233,1,16,411,0,26,223,1,426,0,0,232,13,1,388,13,26,210,21,33
2017-07-11T23:59:59Z,233,424,422,231,424,233,420,230,3,22,0,0,0,0,0,0,0,424,0,233,0,421,1,230,0,0,0,0,0,0,0,0,399,16,8,215,24,22,417,7,0,227,31,1,423,0,0,232,11,1,416,8,0,227,32,1,423,1,0,233,12,1,424,0,0,233,11,1,423,1,0,233,12,1,15,409,0,15,225,1,421,2,0,231,13,1,421,2,0,231,13,1,0,424,0,0,233,1,0,424,0,0,233,1,16,408,0,25,223,1,421,2,0,230,13,1,384,13,27,210,18,33
2017-07-12T23:59:59Z,231,421,419,229,421,231,418,229,2,21,0,0,0,0,0,0,0,421,0,231,0,418,1,228,0,0,0,0,0,0,0,0,398,14,9,215,22,22,415,6,0,227,30,1,420,1,0,231,12,1,413,8,0,226,32,1,421,0,0,231,11,1,421,0,0,231,11,1,421,0,0,231,11,1,15,406,0,15,223,1,420,1,0,230,12,1,420,1,0,230,12,1,0,421,0,0,231,1,0,421,0,0,231,1,14,407,0,24,222,1,418,2,0,229,13,1,381,13,27,208,18,33
2017-07-13T23:59:59Z,232,418,416,230,418,232,415,230,3,22,0,0,0,0,0,0,1,417,1,231,0,414,1,229,0,0,0,0,0,0,0,0,393,14,10,214,23,23,413,5,0,228,31,1,417,0,0,231,13,1,413,5,0,228,31,1,418,0,0,232,12,1,418,0,0,232,13,1,418,0,0,232,12,1,15,403,0,15,224,1,417,0,0,231,13,1,417,0,0,231,13,1,0,418,0,0,232,1,0,418,0,0,232,1,15,403,0,25,222,1,416,0,0,230,12,1,376,14,28,208,19,34
2017-07-14T23:59:59Z,234,422,420,232,422,234,418,231,6,24,0,0,0,0,0,0,0,422,0,234,0,417,1,229,0,0,0,0,0,0,0,0,395,15,11,214,24,24,413,9,0,227,34,1,420,1,0,232,13,1,416,6,0,229,31,1,421,1,0,234,13,1,422,0,0,234,12,1,421,1,0,234,13,1,14,408,0,14,227,1,418,3,0,231,15,1,419,2,0,231,14,1,0,422,0,0,234,1,0,422,0,0,234,1,15,407,0,25,224,1,418,2,0,230,14,1,381,14,27,210,19,34
2017-07-15T23:59:59Z,230,419,417,228,419,230,416,228,3,22,0,0,0,0,0,0,2,417,1,229,0,416,0,227,0,0,0,0,0,0,0,0,389,16,13,211,24,23,410,9,0,224,33,0,417,1,0,229,12,0,411,8,0,224,32,0,419,0,0,230,11,0,419,0,0,230,11,0,418,1,0,230,12,0,15,402,2,16,221,1,416,2,0,228,13,0,416,2,0,228,13,0,0,417,2,0,229,1,0,417,2,0,229,1,17,400,2,26,218,1,416,1,0,227,12,0,378,14,27,206,19,34
2017-07-16T23:59:59Z,232,420,417,229,420,232,416,229,7,26,0,0,0,0,0,0,3,417,2,230,0,416,0,228,0,0,0,0,0,0,0,0,387,18,14,211,25,25,411,9,0,226,33,0,418,1,0,231,12,0,411,9,0,227,33,0,420,0,0,232,11,0,420,0,0,232,11,0,419,1,0,232,12,0,15,403,2,15,223,1,419,0,0,231,11,0,419,0,0,231,11,0,0,418,2,0,231,1,0,418,2,0,231,1,16,402,2,27,221,1,417,1,0,230,12,0,377,15,28,207,20,35
2017-07-17T23:59:59Z,234,418,415,231,418,234,414,231,6,26,0,0,0,0,0,0,2,416,1,233,0,415,0,231,0,0,0,0,0,0,0,0,384,19,14,209,27,26,408,10,0,226,35,0,417,0,0,233,13,0,408,10,0,226,36,0,418,0,0,234,13,0,418,0,0,234,13,0,418,0,0,234,13,0,14,402,2,14,226,1,415,2,0,231,14,0,415,2,0,231,14,0,0,416,2,0,233,1,0,416,2,0,233,1,18,398,2,28,222,1,414,2,0,230,15,0,376,15,27,209,21,36
2017-07-18T23:59:59Z,231,415,412,228,415,231,410,228,4,24,0,0,0,0,0,0,3,412,2,229,0,412,0,228,0,0,0,0,0,0,0,0,385,18,11,209,26,24,408,7,0,226,31,0,414,0,0,230,12,0,408,7,0,226,31,0,415,0,0,231,11,0,415,0,0,231,12,0,415,0,0,231,11,0,15,398,2,15,222,1,414,0,0,230,11,0,414,0,0,230,11,0,0,413,2,0,230,1,0,413,2,0,230,1,16,397,2,27,220,1,413,0,0,229,11,0,372,15,28,206,20,35
2017-07-19T23:59:59Z,230,414,411,227,414,230,410,227,4,24,0,0,0,0,0,0,1,413,1,229,0,410,0,226,0,0,0,0,0,0,0,0,385,18,10,211,27,22,406,8,0,225,34,0,413,0,0,229,12,0,406,8,0,225,34,0,413,1,0,230,13,0,414,0,0,230,12,0,414,0,0,230,12,0,14,400,0,14,223,0,412,1,0,229,13,0,412,1,0,229,13,0,0,414,0,0,230,0,0,414,0,0,230,0,17,397,0,28,219,0,412,0,0,228,12,0,371,15,28,205,20,35
2017-07-20T23:59:59Z,231,415,412,228,415,231,410,228,6,26,0,0,0,0,0,0,0,415,0,231,0,410,0,226,0,0,0,0,0,0,0,0,387,16,11,212,25,23,408,7,0,225,33,0,414,0,0,230,12,0,407,8,0,225,34,0,415,0,0,231,12,0,415,0,0,231,12,0,414,1,0,231,13,0,15,400,0,15,223,0,412,2,0,229,14,0,412,2,0,229,14,0,0,415,0,0,231,0,0,415,0,0,231,0,15,400,0,26,222,0,412,1,0,228,13,0,374,14,27,207,19,35
2017-07-21T23:59:59Z,233,418,415,230,418,233,414,230,6,26,0,0,0,0,0,0,2,416,1,232,0,414,0,229,0,0,0,0,0,0,0,0,385,17,15,211,27,26,409,9,0,227,36,0,416,1,0,232,14,0,410,8,0,227,35,0,418,0,0,233,13,0,418,0,0,233,13,0,417,1,0,233,14,0,14,402,2,14,225,1,416,1,0,231,14,0,415,2,0,231,15,0,0,416,2,0,232,1,0,416,2,0,232,1,15,401,2,26,222,1,415,1,0,230,14,0,376,14,28,209,19,36
2017-07-22T23:59:59Z,231,416,413,228,416,231,411,228,2,23,0,0,0,0,0,0,3,413,2,229,0,412,0,227,0,0,0,0,0,0,0,0,383,18,14,209,27,25,409,7,0,225,33,0,415,0,0,230,12,0,409,7,0,225,33,0,415,1,0,231,13,0,416,0,0,231,12,0,416,0,0,231,12,0,15,399,2,15,222,1,413,2,0,229,14,0,414,1,0,229,13,0,0,414,2,0,230,1,0,414,2,0,230,1,14,400,2,25,221,1,412,2,0,228,14,0,374,14,28,207,19,35
2017-07-23T23:59:59Z,231,416,413,228,416,231,412,228,5,24,0,0,0,0,0,0,2,414,1,230,0,413,0,228,0,0,0,0,0,0,0,0,386,16,13,210,25,25,407,9,0,224,35,0,414,1,0,230,13,0,407,9,0,224,35,0,415,1,0,231,13,0,416,0,0,231,12,0,415,1,0,231,13,0,15,399,2,15,222,1,413,2,0,229,14,0,413,2,0,229,14,0,0,414,2,0,230,1,0,414,2,0,230,1,16,398,2,27,219,1,412,2,0,228,14,0,374,14,28,207,19,35
2017-07-24T23:59:59Z,233,419,416,230,419,233,414,229,4,24,0,0,0,0,0,0,2,417,1,232,0,415,0,229,0,0,0,0,0,0,0,0,388,17,14,213,26,25,413,6,0,229,32,0,418,1,0,233,13,0,413,6,0,229,32,0,418,1,0,233,13,0,419,0,0,233,12,0,418,1,0,232,13,0,15,402,2,15,224,1,419,0,0,233,12,0,419,0,0,233,12,0,0,417,2,0,232,1,0,417,2,0,232,1,17,400,2,27,221,1,417,1,0,231,13,0,377,14,28,209,19,35
2017-07-25T23:59:59Z,232,418,415,229,418,232,413,229,3,25,0,0,0,0,0,0,3,415,2,230,0,415,0,229,0,0,0,0,0,0,0,0,386,18,14,211,28,25,411,7,0,227,34,0,418,0,0,232,13,0,410,8,0,226,35,0,418,0,0,232,13,0,418,0,0,232,13,0,418,0,0,232,13,0,15,401,2,15,223,1,418,0,0,232,13,0,417,1,0,232,14,0,0,416,2,0,231,1,0,416,2,0,231,1,17,399,2,28,219,1,416,1,0,231,14,0,376,14,28,208,19,36
2017-07-26T23:59:59Z,233,418,415,230,418,233,413,230,1,22,0,0,0,0,0,0,3,415,2,231,0,415,0,230,0,0,0,0,0,0,0,0,385,18,14,211,28,25,409,9,0,226,36,0,415,2,0,231,15,0,409,9,0,227,36,0,418,0,0,233,13,0,418,0,0,233,13,0,418,0,0,233,13,0,16,400,2,16,223,1,416,1,0,232,14,0,417,0,0,232,13,0,0,416,2,0,232,1,0,416,2,0,232,1,18,398,2,29,219,1,416,0,0,231,13,0,376,14,28,209,19,36
2017-07-27T23:59:59Z,231,410,407,228,410,231,406,228,4,23,0,0,0,0,0,0,2,408,1,230,0,406,1,227,0,0,0,0,0,0,0,0,381,17,11,211,26,24,402,8,0,225,35,1,409,0,0,230,13,0,403,7,0,225,33,1,410,0,0,231,13,0,410,0,0,231,13,0,410,0,0,231,12,0,15,393,2,15,222,2,408,1,0,229,14,0,408,1,0,229,13,0,0,408,2,0,230,1,0,408,2,0,230,1,17,391,2,29,219,1,407,1,0,228,14,1,369,14,27,207,19,35
2017-07-28T23:59:59Z,230,412,409,227,412,230,408,227,4,24,0,0,0,0,0,0,0,412,0,230,0,409,0,227,0,0,0,0,0,0,0,0,380,17,13,209,25,26,403,9,0,223,34,0,411,0,0,229,12,0,404,7,0,224,33,0,412,0,0,230,11,0,412,0,0,230,12,0,411,0,0,230,11,0,15,397,0,15,222,0,410,1,0,228,13,0,410,1,0,228,13,0,0,412,0,0,230,0,0,412,0,0,230,0,17,395,0,29,219,0,409,1,0,227,12,0,371,14,27,206,19,36
2017-07-29T23:59:59Z,229,410,407,226,410,229,405,225,4,22,0,0,0,0,0,0,1,409,1,228,0,407,0,226,0,0,0,0,0,0,0,0,379,19,11,209,27,22,404,6,0,224,30,0,408,2,0,228,13,0,403,6,0,224,30,0,409,1,0,229,12,1,410,0,0,229,11,0,408,1,0,228,12,0,16,394,0,16,220,0,407,3,0,227,14,0,408,2,0,227,13,0,0,410,0,0,229,0,0,410,0,0,229,0,15,395,0,25,219,1,407,2,0,226,13,0,369,14,27,205,19,34
2017-07-30T23:59:59Z,228,409,406,225,409,228,405,225,3,23,0,0,0,0,0,0,1,408,1,227,0,406,0,225,0,0,0,0,0,0,0,0,377,17,13,208,26,24,401,8,0,222,33,0,407,1,0,227,13,0,400,8,0,223,33,0,409,0,0,228,12,0,409,0,0,228,12,0,407,1,0,228,13,0,16,393,0,16,219,0,407,1,0,227,13,0,408,0,0,227,12,0,0,409,0,0,228,0,0,409,0,0,228,0,16,393,0,26,217,0,407,0,0,226,12,0,367,14,28,204,19,35
2017-07-31T23:59:59Z,227,407,404,224,406,226,402,223,5,24,0,0,0,0,0,0,0,407,0,227,0,403,0,223,0,0,0,0,0,0,0,0,378,17,11,208,26,23,400,7,0,223,32,0,405,1,0,226,13,0,401,5,0,223,30,0,406,1,0,227,13,0,407,0,0,227,12,0,406,0,0,227,12,0,15,392,0,15,219,0,406,0,0,226,12,0,405,1,0,226,13,0,0,407,0,0,227,0,0,407,0,0,227,0,15,392,0,25,217,0,403,1,1,224,13,1,365,14,28,203,20,34
2017-08-01T23:59:59Z,231,411,408,228,411,231,405,226,6,24,0,0,0,0,0,0,2,409,1,230,0,408,0,228,0,0,0,0,0,0,0,0,380,19,11,209,28,23,401,10,0,223,35,0,408,2,0,228,14,0,400,10,0,224,35,0,409,2,0,230,14,0,411,0,0,231,12,0,409,1,0,230,13,0,15,394,2,15,222,1,409,1,0,229,13,0,408,2,0,229,14,1,0,409,2,0,230,1,0,409,2,0,230,2,16,393,2,26,219,1,408,1,0,228,13,0,370,14,27,207,19,33
2017-08-02T23:59:59Z,228,406,403,225,406,228,402,225,2,21,0,0,0,0,0,0,2,404,1,227,0,403,0,225,0,0,0,0,0,0,0,0,378,16,12,208,25,24,400,6,0,224,31,0,406,0,0,228,12,0,399,6,0,224,31,0,406,0,0,228,12,0,406,0,0,228,12,0,405,0,0,228,12,0,16,388,2,16,218,1,405,1,0,228,13,0,405,1,0,228,13,0,0,404,2,0,227,1,0,404,2,0,227,1,15,389,2,25,217,1,404,1,0,227,13,0,365,14,27,204,19,33
2017-08-03T23:59:59Z,229,410,407,226,410,229,406,226,2,20,0,0,0,0,0,0,3,407,2,227,0,407,0,226,0,0,0,0,0,0,0,0,382,16,11,210,25,22,405,5,0,225,30,0,409,0,0,228,12,0,403,6,0,225,31,0,409,1,0,229,13,0,410,0,0,229,12,0,408,1,0,229,13,0,15,393,2,15,220,1,408,1,0,228,13,0,409,0,0,228,12,0,0,408,2,0,228,1,0,408,2,0,228,1,16,392,2,26,218,1,407,1,0,227,13,0,369,14,27,205,19,33
2017-08-04T23:59:59Z,232,412,409,229,412,232,407,229,3,22,0,0,0,0,0,0,2,410,1,231,0,409,0,229,0,0,0,0,0,0,0,0,382,16,13,212,25,24,403,9,0,225,34,0,410,1,0,231,13,0,404,7,0,226,32,0,411,1,0,232,13,0,412,0,0,232,12,0,410,1,0,231,13,0,15,395,2,15,223,1,410,1,0,231,13,0,411,0,0,231,12,0,0,410,2,0,231,1,0,410,2,0,231,1,15,395,2,25,221,1,408,2,0,229,14,0,371,14,27,208,19,33
2017-08-05T23:59:59Z,232,410,407,229,410,232,405,228,2,22,0,0,0,0,0,0,2,408,1,231,0,407,0,229,0,0,0,0,0,0,0,0,381,17,11,211,27,24,403,7,0,226,34,0,408,1,0,230,14,0,403,6,0,227,33,0,409,1,0,231,13,0,410,0,0,232,13,0,408,1,0,231,14,0,16,392,2,16,223,1,408,1,0,230,14,0,408,1,0,230,14,0,0,408,2,0,231,1,0,408,2,0,231,1,18,390,2,28,218,1,407,1,0,229,14,1,370,13,27,209,18,34
2017-08-06T23:59:59Z,232,407,404,229,407,232,402,228,6,26,0,0,0,0,0,0,0,407,0,232,0,404,0,229,0,0,0,0,0,0,0,0,379,17,10,213,27,23,400,7,0,227,33,0,406,0,0,231,14,0,399,7,0,226,33,0,407,0,0,232,13,0,407,0,0,232,14,0,406,0,0,232,14,0,15,392,0,15,224,0,404,2,0,229,16,0,404,2,0,229,15,0,0,407,0,0,232,0,0,407,0,0,232,0,17,390,0,27,221,0,404,1,0,229,15,0,367,14,26,208,19,33
2017-08-07T23:59:59Z,229,403,400,226,403,229,398,226,2,22,0,0,0,0,0,0,0,403,0,229,0,400,0,226,0,0,0,0,0,0,0,0,376,17,9,210,28,22,396,7,0,223,33,0,401,1,0,227,14,0,396,6,0,224,32,0,403,0,0,229,13,0,403,0,0,229,14,0,401,1,0,228,15,0,14,389,0,14,222,0,400,2,0,226,16,0,400,2,0,226,16,0,0,403,0,0,229,0,0,403,0,0,229,0,15,388,0,26,220,0,400,1,0,226,14,0,365,13,25,205,19,33
2017-08-08T23:59:59Z,232,410,407,229,410,232,405,228,3,25,0,0,0,0,0,0,2,408,1,231,0,407,0,229,0,0,0,0,0,0,0,0,380,17,12,211,28,24,403,7,0,226,34,0,407,2,0,230,16,0,402,7,0,226,34,0,410,0,0,232,14,0,410,0,0,232,14,0,408,1,0,232,15,0,14,394,2,14,224,1,406,2,1,228,16,1,406,3,0,229,17,0,0,408,2,0,231,1,0,408,2,0,231,1,14,394,2,25,222,1,406,2,0,228,16,0,369,13,28,207,20,34
2017-08-09T23:59:59Z,233,409,406,230,409,233,404,230,4,25,0,0,0,0,0,0,3,406,2,231,0,405,0,229,0,0,0,0,0,0,0,0,381,17,10,213,30,23,401,8,0,226,37,0,408,0,0,232,15,0,402,7,0,228,35,0,409,0,0,233,15,0,409,0,0,233,16,0,409,0,0,233,15,0,15,392,2,15,224,1,406,2,0,230,18,0,406,2,0,230,17,0,0,407,2,0,232,1,1,406,2,1,231,1,15,392,2,26,222,1,404,2,1,228,17,1,368,13,28,208,21,36
2017-08-10T23:59:59Z,230,404,401,227,404,230,399,226,6,25,0,0,0,0,0,0,2,402,1,229,0,401,0,227,0,0,0,0,0,0,0,0,372,18,13,209,28,24,396,7,1,224,33,1,401,2,0,227,15,0,398,6,0,225,32,0,403,1,0,229,14,0,404,0,0,230,14,0,404,0,0,230,14,0,14,388,2,14,222,1,401,2,0,227,15,0,400,3,0,226,17,0,0,402,2,0,229,1,0,402,2,0,229,1,16,386,2,26,219,1,400,2,0,226,15,0,362,13,29,205,18,35
2017-08-11T23:59:59Z,230,404,401,227,403,229,400,227,4,23,0,0,0,0,0,0,3,401,2,228,0,401,0,227,0,0,0,0,0,0,0,0,374,16,13,211,27,22,398,6,0,225,31,0,403,0,0,229,14,0,396,8,0,223,33,0,404,0,0,230,13,0,404,0,0,230,14,0,404,0,0,230,13,0,14,388,2,14,222,1,402,1,0,228,14,0,401,1,1,227,14,1,0,402,2,0,229,1,0,402,2,0,229,1,15,387,2,25,220,1,401,1,0,227,14,0,363,13,28,205,18,35
2017-08-12T23:59:59Z,231,404,401,228,403,230,400,228,2,22,0,0,0,0,0,0,2,402,1,230,0,401,0,228,0,0,0,0,0,0,0,0,375,17,11,211,28,23,397,7,0,225,34,1,403,0,0,230,15,1,399,5,0,227,32,1,404,0,0,231,15,1,404,0,0,231,15,1,404,0,0,231,15,1,15,387,2,15,222,2,403,0,0,230,14,1,402,0,1,229,15,2,1,401,2,1,229,2,0,401,3,0,229,3,16,386,2,26,220,2,402,0,0,229,15,0,363,13,28,206,19,36
2017-08-13T23:59:59Z,232,411,408,229,411,232,406,228,6,25,0,0,0,0,0,0,2,409,1,231,0,408,0,229,0,0,0,0,0,0,0,0,378,18,14,211,27,24,401,10,0,224,36,0,410,0,0,231,14,0,403,8,0,225,34,0,411,0,0,232,14,0,411,0,0,232,14,0,411,0,0,232,13,0,13,396,2,13,224,1,409,1,0,230,15,0,409,1,0,230,14,0,0,409,2,0,231,1,0,409,2,0,231,1,16,392,3,26,219,2,409,0,0,230,14,0,369,13,29,207,18,35
2017-08-14T23:59:59Z,234,414,411,231,414,234,410,231,4,23,0,0,0,0,0,0,2,412,1,233,0,411,0,231,0,0,0,0,0,0,0,0,384,16,13,214,26,23,408,6,0,228,32,0,412,1,0,233,14,0,409,5,0,229,31,0,414,0,0,234,13,0,414,0,0,234,13,0,414,0,0,234,13,0,15,397,2,15,224,1,412,1,0,232,14,0,411,2,0,232,15,0,0,412,2,0,233,1,0,412,2,0,233,1,14,398,2,24,223,1,411,1,0,231,14,0,371,14,29,209,19,34
2017-08-15T23:59:59Z,235,421,418,232,421,235,417,232,5,24,0,0,0,0,0,0,2,419,1,234,0,418,0,232,0,0,0,0,0,0,0,0,389,17,14,214,26,24,413,8,0,229,32,0,420,0,0,234,13,0,415,6,0,230,31,0,421,0,0,235,13,0,421,0,0,235,13,0,421,0,0,235,13,0,15,404,2,15,225,1,419,1,0,233,14,0,419,1,0,233,14,0,0,419,2,0,234,1,0,419,2,0,234,1,15,404,2,25,223,1,418,1,0,232,13,0,377,14,30,209,19,34
2017-08-16T23:59:58Z,234,419,416,231,419,234,415,231,6,24,0,0,0,0,0,0,2,417,1,233,0,416,1,231,0,0,0,0,0,0,0,0,388,17,13,213,28,23,412,7,0,228,33,0,418,0,0,233,13,0,413,6,0,229,31,0,419,0,0,234,13,0,419,0,0,234,14,0,419,0,0,234,13,0,13,404,2,13,226,1,417,1,0,232,14,0,417,1,0,232,14,0,0,417,2,1,233,1,0,417,2,0,233,1,15,402,2,24,223,1,416,1,0,231,15,0,375,15,29,207,21,35